Find Local Weather

World > North America > United States > Michigan

Leland, Michigan Regional Weather

Lat: 45.02N, Lon: 85.77W
Wx Zone: MIZ020
Warning FLW WEATHER ALERT - (More Info. Click Here) Warning
Feedback
Expires:201811192100;;551916
ASUS43 KDTX 192001
RWRMI 
MICHIGAN HOURLY REGIONAL WEATHER ROUNDUP
NATIONAL WEATHER SERVICE DETROIT/PONTIAC MI
300 PM EST MON NOV 19 2018

NOTE: "FAIR" INDICATES FEW OR NO CLOUDS BELOW 12,000 FEET WITH NO
SIGNIFICANT WEATHER AND/OR OBSTRUCTION TO VISIBILITY.


MIZ016>042-192100-
NORTHERN LOWER MICHIGAN
  
CITY           SKY/WX    TMP DP  RH WIND       PRES   REMARKS
ALPENA         LGT SNOW  32  24  72 W5        29.96F WCI  27          
BEAVER ISLAND  CLOUDY    27  24  87 NE14G21   29.99R WCI  16          
BELLAIRE       CLOUDY    32  26  77 SW8       29.96S WCI  25          
CADILLAC       FLURRIES  31  24  76 W7        29.92S WCI  24          
CHARLEVOIX     FLURRIES  32  28  84 S6        29.97S WCI  26          
FRANKFORT      CLOUDY    31  26  80 NW5       29.98S WCI  26          
GAYLORD        LGT SNOW  28  26  92 SW6       29.92S FOG     WCI  22  
GRAYLING       MIX PCPN  30  26  84 W3        29.93S                  
HARBOR SPRINGS LGT SNOW  29  27  91 E7        29.95S WCI  22          
HOUGHTON LAKE  CLOUDY    32  23  69 W8        29.94S WCI  25          
MANISTEE       CLOUDY    30  25  81 NW7       29.99R WCI  23          
OSCODA         CLOUDY    33  27  79 SW8       29.96F WCI  26          
PELLSTON       LGT SNOW  28  26  92 NE5       29.97S FOG     WCI  23  
ROGERS CITY    LGT SNOW  29  27  92 CALM      29.97F                  
TRAVERSE CITY  CLOUDY    33  25  72 W7        29.96S WCI  27          
$$

SKY/WX - Weather  TMP - Temperature  DP - Dew Point  RH - Relative Humidity
WIND - Wind Direction/Speed PRES - Barometric Pressure